STARLINK-1097 (44916 NORAD) Tracking and Keplerian Element Data

This shows tracking and keplerian element data for the satellite.

Feedback or suggestion? Click here.




ElementValue
Catalog44916
NameSTARLINK-1097
Epoch Orbit2774
Epoch Day189.91668981
Epoch Year2020
RAAN282.6798
Inclination52.9985
Eccentricity0.0001511
Argument of Perigee118.773
Mean Anonmoly184.0383
Mean Motion15.05623106
Decay Rate-0.00038459
L11 44916U 20001C 20189.91668981 -.00038459 00000-0 -26316-2 0 9996
L22 44916 52.9985 282.6798 0001511 118.7730 184.0383 15.05623106 27747

Live tracking and technical data element details for STARLINK-1097 (NORAD 44916). STARLINK-1097 can be tracked NOW for your location showing map with azimuth and elevation plus other details from your city location.

Track the satellite on the map from your city or location and see movement details for azimuth, elevation, latitude, longitude, range, height, and movement on the map or in text.







IsCatalogInMostPopularTable: catalog: 44916, numindb: 36
Update: records affected: 1



GetName: 44916 STARLINK-1097

Hit Count: updated at: Fri, 10 Jul 2020 03:13:18 GMT